Hourly Weather Roundup
Issued by NWS Central Illinois

Home | Current Version | Previous Version | Text Only | Print | Product List | Glossary On
Versions: 1 2 3 4 5 6 7 8 9 10 11 12 13 14 15 16 17 18 19 20 21 22 23 24 25 26 27 28 29 30 31 32 33 34 35 36 37 38 39 40 41 42 43 44 45 46 47 48 49 50
430
NZUS43 KILX 182110
HWRILX

Area Weather Roundup
National Weather Service Lincoln IL
400 PM CDT WED OCT 18 2017

NOTE:  "FAIR" indicates few or no clouds below 12,000 feet, with
       no sigificant weather and/or obstructions to visibility.


CITY           SKY/WX    TMP DP  RH WIND       PRES   REMARKS
Bloomington    SUNNY     70  43  37 S21       30.08F
Champaign      SUNNY     72  39  30 S20       30.12S
Danville       SUNNY     70  43  37 S13       30.10F
Decatur        SUNNY     70  42  36 S13       30.11F
Effingham      SUNNY     71  46  40 SE8G20    30.14F
Flora          SUNNY     72  48  42 S15       30.15F
Galesburg      SUNNY     71  43  36 SW17      30.03S
Jacksonville   SUNNY     72  42  34 S13G18    30.07F
Lacon          SUNNY     71  43  35 SW10G20   30.03F
Lawrenceville  SUNNY     71  47  42 S13       30.17F
Litchfield     SUNNY     72  43  35 S15       30.11F
$$


CITY           SKY/WX    TMP DP  RH WIND       PRES   REMARKS
Lincoln        SUNNY     73  44  36 S15G22    30.07F
Macomb         SUNNY     73  41  31 S10G20    30.05F
Mattoon        SUNNY     69  47  45 S14G21    30.12F
Mt Carmel AP   SUNNY     71  44  37 S16       30.16F
Olney-Noble AP SUNNY     71  40  32 S10G17    30.16S
Paris AP       SUNNY     70  47  44 S13       30.15S
Peoria         SUNNY     71  44  37 SW16G23   30.04F
Pontiac        SUNNY     73  41  31 S20       30.07F
Rantoul        SUNNY     72  44  36 S15G24    30.11S
Robinson       SUNNY     71  44  38 S14       30.17F
Springfield    SUNNY     73  44  35 S13G21    30.08F
Taylorville    SUNNY     72  43  34 S13G22    30.10F
$$

...REGIONAL REPORTS...


CITY           SKY/WX    TMP DP  RH WIND       PRES   REMARKS
Chicago O`Hare SUNNY     70  41  34 SW18G28   30.02F
Kankakee       SUNNY     71  39  30 S14       30.09F
Moline         SUNNY     74  44  34 SW15G23   29.98F
Mount Sterling SUNNY     72  42  33 SW15      30.05F
Mount Vernon   SUNNY     71  49  45 S16       30.15F
Pittsfield     SUNNY     73  43  33 S13       30.07F
Quincy         SUNNY     72  40  31 S14       30.04F
Rockford       MOSUNNY   71  41  33 S16G29    30.00F
$$


CITY           SKY/WX    TMP DP  RH WIND       PRES   REMARKS
Burlington     SUNNY     72  46  39 S15G22    30.01S
Cedar Rapids   SUNNY     73  46  38 S18G26    29.95S
Des Moines     MOSUNNY   75  49  39 S16       29.92S
Kirksville     SUNNY     73  49  42 S15G24    30.01S
Ottumwa        SUNNY     74  47  38 S17G23    29.95F
St Louis       PTSUNNY   74  45  35 S12       30.10F
$$


CITY           SKY/WX    TMP DP  RH WIND       PRES   REMARKS
Terre Haute    SUNNY     69  44  40 S12       30.16F
Evansville     SUNNY     71  44  37 S9        30.19F
Indianapolis   MOSUNNY   69  43  38 S12       30.17F
Lafayette      SUNNY     68  42  38 S14       30.13F
Madison        MOSUNNY   71  44  37 S17G24    29.93F
Milwaukee      MOSUNNY   72  43  35 SW28G33   29.97F
$$






USA.gov is the U.S. government's official web portal to all federal, state and local government web resources and services.